Flag for Canada Weather past 2 weeks in Norman Wells, Northwest Territories, Canada

30 °F

Light snow. Mostly cloudy.

Feels Like: 24 °F
Forecast: 26 / 30 °F
Wind: 6 mph from Southeast

Location: Norman Wells

Current Time: Oct 10, 2015 at 12:38:19 PM

Latest Report: Oct 10, 2015 at 12:00 PM

Visibility: 20 mi

Pressure: 29.46 "Hg

Humidity: 86%

Dew point: 27 °F

Location of Norman WellsLocation

Historic Weather in Norman Wells — Graph


Norman Wells temperature yesterday

Maximum temperature yesterday: 34 °F (at 1:00 PM)
Minimum temperature yesterday: 30 °F (at 4:00 PM)
Average temperature yesterday: 32 °F

Past Weeks' High & Low Weather Summary

High57 °F (Sep 29, 7:00 PM)100% (Sep 26, 12:00 AM)30.61 "Hg (Sep 26, 12:00 AM)
Low18 °F (Oct 2, 5:00 AM)33% (Oct 2, 6:00 PM)29.08 "Hg (Sep 29, 10:00 PM)
Average34 °F81%29.87 "Hg
* Reported Sep 25 11:00 AM — Oct 10 11:00 AM, Norman Wells, Weather by CustomWeather, © 2015

Note: Actual official high and low records may vary slightly from our data, if they occured in-between our weather recording intervals... More about our weather records


Norman Wells weather history for previous 24 hours

Time TempWeatherWind HumidityBarometerVisibility
11:00 AM
Sat, Oct 10
30 °FLight snow. Overcast.No wind80%29.45 "Hg15 mi
10:00 AM30 °FLight snow. Mostly cloudy.No wind75%29.45 "Hg15 mi
9:00 AM30 °FLight snow. Overcast.2 mph80%29.44 "Hg20 mi
8:00 AM30 °FLight snow. Passing clouds.2 mph80%29.44 "Hg15 mi
7:00 AM30 °FLight snow. Overcast.6 mph86%29.43 "Hg15 mi
6:00 AM28 °FLight snow. Overcast.No wind100%29.43 "Hg15 mi
5:00 AM28 °FLight snow. Overcast.No wind100%29.44 "Hg15 mi
4:46 AM30 °FLight snow. Overcast.2 mph93%29.44 "Hg15 mi
4:00 AM30 °FLight snow. Overcast.5 mph93%29.44 "Hg15 mi
3:00 AM30 °FLight snow. Overcast.7 mph93%29.44 "Hg15 mi
2:00 AM30 °FLight snow. Overcast.6 mph93%29.45 "Hg15 mi
1:00 AM30 °FLight snow. Overcast.6 mph93%29.46 "Hg15 mi
12:00 AM30 °FLight snow. Overcast.5 mph93%29.48 "Hg15 mi
11:00 PM
Fri, Oct 9
30 °FLight snow. Overcast.3 mph93%29.49 "Hg15 mi
10:00 PM30 °FLight snow. Overcast.2 mph93%29.50 "Hg15 mi
9:00 PM30 °FLight snow. More clouds than sun.2 mph100%29.52 "Hg15 mi
8:00 PM30 °FLight snow. Partly sunny.5 mph100%29.53 "Hg15 mi
7:00 PM32 °FLight snow. Mostly cloudy.2 mph93%29.55 "Hg10 mi
6:00 PM32 °FLight snow. Mostly cloudy.3 mph93%29.57 "Hg5 mi
5:00 PM32 °FLight snow. Partly sunny.No wind87%29.59 "Hg5 mi
4:00 PM30 °FLight snow. Overcast.No wind100%29.61 "Hg1 mi
3:00 PM32 °FLight snow. Overcast.3 mph87%29.63 "Hg3 mi
2:00 PM32 °FLight snow. Mostly cloudy.6 mph87%29.64 "Hg3 mi
1:00 PM34 °FLight snow. Mostly cloudy.8 mph75%29.65 "Hg8 mi
12:00 PM32 °FLight snow. Mostly cloudy.6 mph80%29.67 "Hg6 mi
Weather by CustomWeather, © 2015

See weather overviewHow to use our weather pages